Regional Weather Roundup
Issued by NWS Newport/Morehead, NC

Current Version | Previous Version | Text Only | Print | Product List | Glossary On
Versions: 1 2 3 4 5 6 7 8 9 10 11 12 13 14 15 16 17 18 19 20 21 22 23 24 25 26 27 28 29 30 31 32 33 34 35 36 37 38 39 40 41 42 43 44 45 46 47 48 49 50
000
ASUS42 KMHX 011925
RWRMHX
WEATHER ROUNDUP FOR EASTERN NORTH CAROLINA
NATIONAL WEATHER SERVICE NEWPORT/MOREHEAD CITY NC
300 PM EDT SUN MAY 01 2016

NOTE: "FAIR" INDICATES FEW OR NO CLOUDS BELOW 12,000 FEET
WITH NO SIGNIFICANT WEATHER AND/OR OBSTRUCTIONS TO VISIBILITY

NCZ015>017-031-032-045>047-102-103-012000-
NORTH COAST

CITY           SKY/WX    TMP DP  RH WIND       PRES   REMARKS
EDENTON        NOT AVBL
ELIZABETH CITY LGT RAIN  71  68  90 SW6       30.06F FOG
KITTY HAWK     CLOUDY    74  63  69 S7        30.07F
MANTEO         NOT AVBL

$$

NCZ045>047-081-094-103-104-012000-
CENTRAL COAST

CITY           SKY/WX    TMP DP  RH WIND       PRES   REMARKS
FRISCO         CLOUDY    71  65  81 SW7       30.11S
SWANQUARTER    NOT AVBL

$$

NCZ095-097-098-100-101-012000-
SOUTHERN COAST

CITY           SKY/WX    TMP DP  RH WIND       PRES   REMARKS
BEAUFORT       CLOUDY    75  67  76 SW12      30.10F
CEDAR ISLAND   NOT AVBL
JACKSONVILLE   CLOUDY    76  62  62 SW6       30.09S
PINEY ISLAND   NOT AVBL
WILMINGTON     TSTM      70  67  90 NW6       30.10S FOG


$$

NCZ011>013-027>030-043-044-078>080-089-090>093-098-012000-
COASTAL PLAIN

CITY           SKY/WX    TMP DP  RH WIND       PRES   REMARKS
AHOSKIE        CLOUDY    71  65  82 S9        30.05F
CLINTON        LGT RAIN  68  68  99 S6        30.06F
ELIZABETHTOWN  LGT RAIN  68  68 100 S6        30.08S
GOLDSBORO      CLOUDY    70  70 100 S7        30.02F
GREENVILLE     CLOUDY    72  70  94 S12       30.07F
HAVELOCK       CLOUDY    79  64  60 SW13G24   30.10F
KENANSVILLE    LGT RAIN  68  66  93 S5        30.07F
KINSTON        CLOUDY    70  66  88 S12       30.07F
NEW BERN       LGT RAIN  76  61  59 SW14      30.11R
RICHLANDS      RAIN      71  68  90 SW6       30.11S
ROCKY MOUNT    CLOUDY    71  66  84 VRB5      30.05F
WASHINGTON     LGT RAIN  69  66  90 S10       30.07F
WHITEVILLE     CLOUDY    68  65  92 SW3       30.09F

$$

AMZ130-135-150-152-154-156-158-170-250-252-270-ANZ085-086-088-633-658-670-012000-
MARINE OBSERVATIONS

STATION/POSITION TIME  TEMP    WIND        PRES    WAVE   SWELL
                       AIR SEA DIR/SP/G            HT/PER HT/PER
                 (UTC) (F)     (DEG/KT/KT) (MB)    (FT/S) (FT/S)
CHESAPEAKE LIGHT 1900   58     160/  2/  3 1019.4
64 E VA BEACH    1850   58 53  170/  8/ 10 1018.8    4/ 8   3/ 8
DUCK             1900   73 67  210/ 12/ 15 1017.8
2 E DUCK         1811      60                N/A     4/ 9   2/11
OREGON INLET     1900   70 62  180/ 12/ 13 1018.8
13E OREGON INLT  1800      59                N/A     5/10   5/10
HATTERAS CG      1900   73 67  200/  5/  8 1019.3
DIAMOND BUOY     1850   74 74  190/ 16/ 17 1019.2    4/11   3/11
CAPE LOOKOUT     1900   74     220/  9/ 13 1019.1
BEAUFORT LAB     1900   74 67  210/  5/  9 1018.5
30 SE NEW RVR IN 1825      71                N/A     4/10   2/11
27 SE WRIGHTSVLE 1908   74 72  200/  8/ 10 1019.9
5 SE WRIGHTSVLE  1908   71 69  180/  6/ 10 1019.6
225 S CAPE HAT   1850   72     140/ 10/ 12 1020.6    4/10   3/10
41 SE CHARLESTON 1850   76 74  170/ 10/ 12 1017.8    4/ 7   3/ 7

$$



USA.gov is the U.S. government's official web portal to all federal, state and local government web resources and services.